FW9069 Weather Reports


time (UTC)temp
C
wind
direction
speed
KPH
gust
KPH
rain 1hr
cm
rain 24hr
cm
rain mn
cm
humidity
%
barometer
mb
20260504184830 16 127 3.2 9.7 0.00 0.00 0.00 81 1014.4
20260504183321 15 148 3.2 11.3 0.00 0.00 0.00 82 1014.3
20260504181832 15 135 4.8 12.9 0.00 0.00 0.00 82 1014.3
20260504180323 15 172 4.8 11.3 0.00 0.00 0.00 83 1014.2
20260504174830 14 173 3.2 11.3 0.00 0.00 0.00 86 1014.3
20260504173338 13 104 3.2 9.7 0.00 0.00 0.00 86 1014.1
20260504171843 13 175 8.0 16.1 0.00 0.00 0.00 87 1014.3
20260504170333 13 152 6.4 16.1 0.00 0.00 0.00 87 1014.2
20260504160331 12 155 6.4 14.5 0.00 0.00 0.00 91 1014.0
20260504150325 11 147 4.8 12.9 0.00 0.00 0.00 93 1013.9
20260504140320 10 119 1.6 11.3 0.00 0.00 0.00 95 1013.3
20260504130327 10 172 3.2 11.3 0.00 0.00 0.00 93 1012.3
20260504110326 11 186 9.7 19.3 0.00 0.00 0.00 92 1011.3
20260504100323 11 180 9.7 14.5 0.00 0.00 0.00 90 1011.1
20260504081821 14 188 6.4 12.9 0.00 0.00 0.00 77 1010.2
20260504080326 16 204 9.7 16.1 0.00 0.00 0.00 72 1010.0
20260504070332 19 240 14.5 27.4 0.00 0.00 0.00 60 1009.5
20260504050325 23 239 11.3 30.6 0.00 0.00 0.00 45 1008.7
20260504044814 23 233 17.7 30.6 0.00 0.00 0.00 43 1008.4
20260504043332 24 245 11.3 25.7 0.00 0.00 0.00 43 1008.1
20260504041831 24 243 16.1 25.7 0.00 0.00 0.00 42 1007.9
20260504040337 25 217 16.1 27.4 0.00 0.00 0.00 42 1007.8
20260504034823 25 244 16.1 24.1 0.00 0.00 0.00 42 1007.7
20260504033331 25 235 16.1 25.7 0.00 0.00 0.00 42 1007.6
20260504031840 25 239 14.5 24.1 0.00 0.00 0.00 43 1007.6
20260504030325 26 229 16.1 24.1 0.00 0.00 0.00 43 1007.6
20260504024830 27 237 12.9 17.7 0.00 0.00 0.00 43 1007.7
20260504023338 29 239 11.3 19.3 0.00 0.00 0.00 40 1007.7
20260504021829 30 295 0.0 3.2 0.00 0.00 0.00 37 1007.6
20260504020320 30 319 0.0 4.8 0.00 0.00 0.00 36 1007.7
20260504014827 31 315 1.6 6.4 0.00 0.00 0.00 36 1007.8
20260504013356 31 331 3.2 11.3 0.00 0.00 0.00 35 1007.8
20260504011825 31 323 1.6 11.3 0.00 0.00 0.00 36 1007.9
20260504010329 31 319 3.2 12.9 0.00 0.00 0.00 36 1008.0
20260504004858 32 314 6.4 11.3 0.00 0.00 0.00 33 1008.0
20260504003324 32 326 8.0 14.5 0.00 0.00 0.00 35 1008.0
20260504001833 32 331 3.2 11.3 0.00 0.00 0.00 34 1008.2
20260504000328 31 294 3.2 12.9 0.00 0.00 0.00 36 1008.3
20260503234832 31 263 1.6 11.3 0.00 0.00 0.00 34 1008.3
20260503233321 31 342 3.2 12.9 0.00 0.00 0.00 36 1008.5
20260503231855 32 317 9.7 17.7 0.00 0.00 0.00 33 1008.7
20260503230345 32 325 3.2 11.3 0.00 0.00 0.00 38 1008.8
20260503224826 31 354 1.6 11.3 0.00 0.00 0.00 39 1009.2
20260503223335 31 308 3.2 12.9 0.00 0.00 0.00 42 1009.3
20260503221822 31 278 3.2 8.0 0.00 0.00 0.00 43 1009.6
20260503220330 31 344 6.4 16.1 0.00 0.00 0.00 46 1009.7
20260503214839 30 349 3.2 8.0 0.00 0.00 0.00 45 1009.9
20260503213323 30 339 4.8 14.5 0.00 0.00 0.00 47 1010.2
20260503211854 29 352 6.4 14.5 0.00 0.00 0.00 47 1010.3
20260503210321 28 339 8.0 16.1 0.00 0.00 0.00 48 1010.4
20260503204828 28 333 9.7 16.1 0.00 0.00 0.00 50 1010.5
20260503203338 28 352 9.7 14.5 0.00 0.00 0.00 49 1010.7
20260503201840 27 330 11.3 16.1 0.00 0.00 0.00 52 1010.9
20260503200320 27 327 9.7 19.3 0.00 0.00 0.00 52 1011.1
20260503194823 26 327 6.4 16.1 0.00 0.00 0.00 54 1011.2
20260503193348 26 321 3.2 16.1 0.00 0.00 0.00 55 1011.3
20260503191834 25 344 4.8 11.3 0.00 0.00 0.00 56 1011.5
20260503190357 25 321 3.2 16.1 0.00 0.00 0.00 59 1011.6